TimeAKDT,TemperatureF,Dew PointF,Humidity,Sea Level PressureIn,VisibilityMPH,Wind Direction,Wind SpeedMPH,Gust SpeedMPH,PrecipitationIn,Events,Conditions,WindDirDegrees,DateUTC
12:53 AM,7.0,3.9,87,29.34,10.0,NE,3.5,-,N/A,,Clear,50,2012-10-13 08:53:00
1:53 AM,6.1,3.0,87,29.34,10.0,Calm,Calm,-,N/A,,Clear,0,2012-10-13 09:53:00
2:53 AM,7.0,3.0,84,29.33,10.0,Calm,Calm,-,N/A,,Clear,0,2012-10-13 10:53:00
3:53 AM,8.1,5.0,87,29.33,10.0,Calm,Calm,-,N/A,,Clear,0,2012-10-13 11:53:00
4:53 AM,9.0,6.1,88,29.33,10.0,Calm,Calm,-,N/A,,Partly Cloudy,0,2012-10-13 12:53:00
5:53 AM,12.9,10.9,92,29.32,10.0,Calm,Calm,-,N/A,,Overcast,0,2012-10-13 13:53:00
6:04 AM,12.2,10.4,92,29.21,10.0,Calm,Calm,-,N/A,,Mostly Cloudy,0,2012-10-13 14:04:00
6:34 AM,12.2,10.4,92,29.22,1.8,Calm,Calm,-,0.01,Snow,Light Snow,0,2012-10-13 14:34:00
6:53 AM,12.9,10.9,92,29.34,1.0,Calm,Calm,-,0.02,Snow,Light Snow,0,2012-10-13 14:53:00
7:53 AM,14.0,10.9,88,29.35,1.0,Calm,Calm,-,0.03,Snow,Light Snow,0,2012-10-13 15:53:00
8:53 AM,14.0,10.9,88,29.36,3.0,Calm,Calm,-,0.04,Snow,Light Snow,0,2012-10-13 16:53:00
9:11 AM,15.8,12.2,86,29.24,8.0,Calm,Calm,-,0.00,,Overcast,0,2012-10-13 17:11:00
9:53 AM,15.1,12.0,88,29.37,10.0,Calm,Calm,-,0.00,,Overcast,0,2012-10-13 17:53:00
10:53 AM,17.1,14.0,88,29.38,10.0,Calm,Calm,-,N/A,,Overcast,0,2012-10-13 18:53:00
11:53 AM,19.9,15.1,81,29.39,10.0,Calm,Calm,-,0.00,Snow,Light Snow,0,2012-10-13 19:53:00
12:53 PM,21.9,16.0,78,29.39,10.0,Calm,Calm,-,0.00,,Overcast,0,2012-10-13 20:53:00
1:53 PM,24.1,17.1,75,29.39,10.0,Calm,Calm,-,N/A,,Overcast,0,2012-10-13 21:53:00
2:53 PM,25.0,17.1,72,29.38,10.0,SE,3.5,-,N/A,,Overcast,130,2012-10-13 22:53:00
3:53 PM,26.1,18.0,71,29.37,10.0,Calm,Calm,-,N/A,,Overcast,0,2012-10-13 23:53:00
4:53 PM,28.0,18.0,66,29.37,10.0,Calm,Calm,-,N/A,,Overcast,0,2012-10-14 00:53:00
5:53 PM,26.1,18.0,71,29.37,10.0,Calm,Calm,-,N/A,,Mostly Cloudy,0,2012-10-14 01:53:00
6:53 PM,21.9,17.1,82,29.38,10.0,Calm,Calm,-,N/A,,Mostly Cloudy,0,2012-10-14 02:53:00
7:53 PM,16.0,14.0,92,29.39,10.0,Calm,Calm,-,N/A,,Scattered Clouds,0,2012-10-14 03:53:00
9:26 PM,12.2,10.4,92,29.27,10.0,Calm,Calm,-,N/A,,Partly Cloudy,0,2012-10-14 05:26:00
9:53 PM,10.9,9.0,92,29.40,10.0,Calm,Calm,-,N/A,,Mostly Cloudy,0,2012-10-14 05:53:00
10:53 PM,10.0,7.0,87,29.40,10.0,Calm,Calm,-,N/A,,Mostly Cloudy,0,2012-10-14 06:53:00
11:53 PM,7.0,5.0,92,29.40,10.0,Calm,Calm,-,N/A,,Clear,0,2012-10-14 07:53:00